DAL1011 EDDF-OMDB

Flight info

Callsign DAL1011
Flight time N/A
Altitude 35000
Route TOBAK8M/25C TOBAK N858 SWALM T201 TAMEB DCT NEVKO DCT OMELO DCT VOZ DCT PISAM DCT TEKNO DCT KEROP DCT NISVA DCT VANET DCT NIKTI DCT LMO DCT RIKSO DCT YOYYO UG80 BANRO DCT VANZA/N0479F370 DCT LAKTO L560 SILKA M872 BDB Y214 NAGUB/N0480F390 Y214 RAPMA DCT KUVSO DCT KATIT DCT PEKEM M628 RIGIL G783 ELUDA/N0491F350 G783 ASPED Q308 KIPOK/N0493F340 Q568 IMPED IMPED3C
Aircraft L101/H-SDFGHIRWXY/S

Departure

Time N/A
Airport Frankfurt Main Airport (EDDF)

Arrival

Time 2026-05-06 01:02
Airport Dubai International Airport (OMDB)
Time Latitude Longitude Altitude Speed Heading
2026-05-05 18:51 50.30109 14.33577 34934 ft 433 kts 159°
2026-05-05 18:51 50.26586 14.36104 34939 ft 433 kts 159°
2026-05-05 18:51 50.21200 14.39949 34926 ft 433 kts 159°
2026-05-05 18:52 50.15630 14.43885 34931 ft 435 kts 159°
2026-05-05 18:52 50.10842 14.47252 34915 ft 435 kts 159°
2026-05-05 18:53 50.05288 14.51149 34918 ft 435 kts 159°
2026-05-05 18:53 49.99764 14.55019 34921 ft 435 kts 159°
2026-05-05 18:54 49.94237 14.58887 34920 ft 435 kts 159°
2026-05-05 18:54 49.88735 14.62731 34929 ft 434 kts 159°
2026-05-05 18:55 49.83225 14.66571 34915 ft 434 kts 159°
2026-05-05 18:55 49.77647 14.70404 34927 ft 436 kts 159°
2026-05-05 18:56 49.72043 14.74220 34923 ft 436 kts 159°
2026-05-05 18:56 49.66476 14.78000 34921 ft 436 kts 159°
2026-05-05 18:57 49.60828 14.81832 34924 ft 436 kts 159°
2026-05-05 18:57 49.55277 14.85592 34923 ft 436 kts 159°
2026-05-05 18:58 49.49699 14.89368 34926 ft 436 kts 159°
2026-05-05 18:58 49.44163 14.93178 34899 ft 438 kts 155°
2026-05-05 18:59 49.38974 14.98154 34911 ft 442 kts 147°
2026-05-05 18:59 49.33923 15.03649 34908 ft 441 kts 149°
2026-05-05 19:00 49.28741 15.08779 34913 ft 440 kts 150°
2026-05-05 19:00 49.23473 15.13672 34903 ft 440 kts 153°
2026-05-05 19:01 49.18106 15.18158 34892 ft 439 kts 155°
2026-05-05 19:01 49.12665 15.22530 34887 ft 439 kts 155°
2026-05-05 19:02 49.07172 15.26880 34908 ft 440 kts 155°
2026-05-05 19:02 49.01631 15.31265 34905 ft 440 kts 155°
2026-05-05 19:03 48.97051 15.34891 34906 ft 440 kts 155°
2026-05-05 19:03 48.91694 15.39130 34898 ft 440 kts 155°
2026-05-05 19:04 48.86215 15.43464 34907 ft 440 kts 155°
2026-05-05 19:04 48.81033 15.48575 34893 ft 444 kts 140°
2026-05-05 19:05 48.76711 15.55447 34902 ft 448 kts 132°
2026-05-05 19:05 48.72780 15.62802 34905 ft 450 kts 130°
2026-05-05 19:06 48.68926 15.70337 34909 ft 450 kts 129°
2026-05-05 19:06 48.65128 15.77882 34894 ft 450 kts 130°
2026-05-05 19:07 48.61311 15.85462 34898 ft 450 kts 129°
2026-05-05 19:07 48.57531 15.92948 34912 ft 450 kts 130°
2026-05-05 19:08 48.53710 16.00497 34912 ft 450 kts 130°
2026-05-05 19:08 48.49899 16.08010 34908 ft 450 kts 130°
2026-05-05 19:09 48.46094 16.15494 34920 ft 450 kts 130°
2026-05-05 19:09 48.42275 16.22982 34910 ft 450 kts 130°
2026-05-05 19:10 48.38341 16.30367 34920 ft 450 kts 133°
2026-05-05 19:10 48.34243 16.37524 34928 ft 449 kts 133°
2026-05-05 19:11 48.30097 16.44582 34936 ft 449 kts 134°
2026-05-05 19:11 48.25953 16.51580 34929 ft 450 kts 134°
2026-05-05 19:12 48.21793 16.58626 34939 ft 451 kts 134°
2026-05-05 19:12 48.17718 16.65503 34919 ft 451 kts 134°
2026-05-05 19:13 48.13526 16.72553 34913 ft 451 kts 134°
2026-05-05 19:13 48.09340 16.79623 34942 ft 451 kts 134°
2026-05-05 19:14 48.05144 16.86686 34942 ft 450 kts 134°
2026-05-05 19:14 48.00928 16.93740 34959 ft 453 kts 134°
2026-05-05 19:15 47.96738 17.00760 34962 ft 453 kts 134°
2026-05-05 19:15 47.92516 17.07828 34973 ft 453 kts 134°
2026-05-05 19:16 47.88322 17.14815 34970 ft 453 kts 134°
2026-05-05 19:16 47.84830 17.20630 34981 ft 453 kts 134°
2026-05-05 19:17 47.80546 17.27754 34993 ft 452 kts 134°
2026-05-05 19:17 47.76332 17.34738 34996 ft 452 kts 134°
2026-05-05 19:18 47.72113 17.41722 35020 ft 453 kts 134°
2026-05-05 19:18 47.67708 17.48398 35019 ft 451 kts 141°
2026-05-05 19:19 47.62836 17.54336 35043 ft 450 kts 144°
2026-05-05 19:19 47.57864 17.59975 35040 ft 450 kts 145°
2026-05-05 19:20 47.52793 17.65616 35046 ft 450 kts 146°
2026-05-05 19:20 47.47709 17.71239 35045 ft 450 kts 146°
2026-05-05 19:21 47.42697 17.76798 35064 ft 450 kts 146°
2026-05-05 19:21 47.37677 17.82353 35043 ft 450 kts 146°
2026-05-05 19:22 47.32631 17.87918 35059 ft 450 kts 145°
2026-05-05 19:22 47.27572 17.93468 35077 ft 450 kts 146°
2026-05-05 19:23 47.22511 17.99004 35082 ft 450 kts 146°
2026-05-05 19:23 47.17417 18.04593 35086 ft 453 kts 145°
2026-05-05 19:24 47.12433 18.10159 35064 ft 454 kts 140°
2026-05-05 19:24 47.08079 18.16928 35089 ft 455 kts 130°
2026-05-05 19:25 47.04218 18.24299 35093 ft 456 kts 128°
2026-05-05 19:25 47.00484 18.31839 35095 ft 457 kts 127°
2026-05-05 19:26 46.96794 18.39411 35091 ft 455 kts 127°
2026-05-05 19:26 46.93056 18.47055 35096 ft 455 kts 127°
2026-05-05 19:27 46.89356 18.54591 35093 ft 455 kts 127°
2026-05-05 19:27 46.85656 18.62105 35102 ft 455 kts 127°
2026-05-05 19:28 46.81964 18.69584 35097 ft 455 kts 127°
2026-05-05 19:28 46.78255 18.77075 35099 ft 455 kts 127°
2026-05-05 19:29 46.74480 18.84554 35101 ft 454 kts 129°
2026-05-05 19:29 46.70541 18.91730 35104 ft 454 kts 131°
2026-05-05 19:30 46.66507 18.98812 35102 ft 454 kts 131°
2026-05-05 19:30 46.63074 19.04694 35104 ft 455 kts 133°
2026-05-05 19:31 46.58853 19.11632 35106 ft 456 kts 133°
2026-05-05 19:31 46.54607 19.18489 35107 ft 456 kts 134°
2026-05-05 19:32 46.50321 19.25361 35103 ft 456 kts 134°
2026-05-05 19:32 46.46001 19.32104 35106 ft 457 kts 136°
2026-05-05 19:33 46.41414 19.38455 35103 ft 457 kts 139°
2026-05-05 19:33 46.36675 19.44702 35104 ft 457 kts 140°
2026-05-05 19:34 46.31916 19.50873 35103 ft 457 kts 140°
2026-05-05 19:35 46.24699 19.60244 35101 ft 457 kts 140°
2026-05-05 19:35 46.19973 19.66399 35110 ft 458 kts 140°
2026-05-05 19:36 46.15115 19.72324 35103 ft 456 kts 146°
2026-05-05 19:36 46.09872 19.77736 35096 ft 456 kts 146°
2026-05-05 19:37 46.04678 19.83146 35106 ft 456 kts 146°
2026-05-05 19:37 45.99562 19.88537 35107 ft 456 kts 146°
2026-05-05 19:38 45.94454 19.93946 35103 ft 456 kts 146°
2026-05-05 19:38 45.89350 19.99360 35108 ft 456 kts 146°
2026-05-05 19:39 45.84218 20.04805 35109 ft 456 kts 146°
2026-05-05 19:39 45.79118 20.10204 35096 ft 456 kts 146°
2026-05-05 19:40 45.73968 20.15647 35108 ft 457 kts 146°
2026-05-05 19:40 45.68851 20.21059 35110 ft 457 kts 146°
2026-05-05 19:41 45.63732 20.26473 35109 ft 457 kts 146°
2026-05-05 19:41 45.58611 20.31885 35104 ft 458 kts 145°
2026-05-05 19:42 45.53475 20.37279 35100 ft 459 kts 146°
2026-05-05 19:42 45.48308 20.42694 35102 ft 459 kts 146°
2026-05-05 19:43 45.43128 20.48129 35106 ft 459 kts 146°
2026-05-05 19:43 45.38862 20.52606 35108 ft 459 kts 146°
2026-05-05 19:44 45.33696 20.57935 35110 ft 459 kts 148°
2026-05-05 19:44 45.28284 20.62830 35100 ft 459 kts 150°
2026-05-05 19:45 45.22795 20.67489 35104 ft 459 kts 151°
2026-05-05 19:45 45.17294 20.72085 35108 ft 459 kts 152°
2026-05-05 19:46 45.11792 20.76654 35106 ft 459 kts 152°
2026-05-05 19:46 45.06265 20.81321 35109 ft 461 kts 149°
2026-05-05 19:47 45.00897 20.86340 35100 ft 462 kts 147°
2026-05-05 19:47 44.95627 20.91524 35108 ft 463 kts 147°
2026-05-05 19:48 44.90336 20.96810 35107 ft 463 kts 146°
2026-05-05 19:48 44.85059 21.02109 35108 ft 463 kts 146°
2026-05-05 19:49 44.79773 21.07367 35109 ft 465 kts 146°
2026-05-05 19:49 44.74477 21.12603 35110 ft 465 kts 146°
2026-05-05 19:50 44.69159 21.17846 35106 ft 465 kts 146°
2026-05-05 19:50 44.63810 21.23110 35119 ft 465 kts 146°
2026-05-05 19:51 44.58492 21.28293 35122 ft 466 kts 146°
2026-05-05 19:51 44.53120 21.33466 35101 ft 466 kts 147°
2026-05-05 19:52 44.47558 21.38849 35116 ft 468 kts 147°
2026-05-05 19:52 44.42258 21.44013 35119 ft 468 kts 146°
2026-05-05 19:53 44.36901 21.49227 35133 ft 469 kts 146°
2026-05-05 19:53 44.31546 21.54393 35137 ft 469 kts 146°
2026-05-05 19:54 44.26134 21.59603 35131 ft 471 kts 147°
2026-05-05 19:54 44.20752 21.64810 35136 ft 472 kts 147°
2026-05-05 19:55 44.15365 21.70025 35144 ft 472 kts 146°
2026-05-05 19:55 44.09915 21.75261 35146 ft 471 kts 146°
2026-05-05 19:56 44.04511 21.80427 35147 ft 471 kts 146°
2026-05-05 19:56 43.99104 21.85607 35145 ft 474 kts 147°
2026-05-05 19:57 43.93654 21.90848 35154 ft 474 kts 146°
2026-05-05 19:57 43.88219 21.96027 35146 ft 473 kts 146°
2026-05-05 19:58 43.83661 22.00346 35144 ft 473 kts 146°
2026-05-05 19:58 43.78123 22.05581 35136 ft 473 kts 147°
2026-05-05 19:59 43.72666 22.10761 35145 ft 475 kts 147°
2026-05-05 19:59 43.67200 22.15962 35148 ft 476 kts 146°
2026-05-05 20:00 43.61748 22.21150 35156 ft 476 kts 146°
2026-05-05 20:00 43.56254 22.26375 35158 ft 476 kts 146°
2026-05-05 20:01 43.50741 22.31637 35175 ft 476 kts 146°
2026-05-05 20:01 43.45178 22.36934 35171 ft 478 kts 146°
2026-05-05 20:02 43.39614 22.42200 35174 ft 478 kts 146°
2026-05-05 20:02 43.34167 22.47340 35172 ft 478 kts 146°
2026-05-05 20:03 43.29712 22.51542 35176 ft 479 kts 147°
2026-05-05 20:03 43.23911 22.57012 35196 ft 480 kts 146°
2026-05-05 20:04 43.18327 22.62244 35191 ft 481 kts 146°
2026-05-05 20:04 43.12721 22.67484 35195 ft 481 kts 146°
2026-05-05 20:05 43.07150 22.72684 35198 ft 481 kts 147°
2026-05-05 20:05 43.01578 22.77866 35198 ft 481 kts 146°
2026-05-05 20:06 42.95894 22.82937 35205 ft 481 kts 149°
2026-05-05 20:06 42.90098 22.87599 35202 ft 481 kts 151°
2026-05-05 20:07 42.84237 22.92136 35204 ft 481 kts 152°
2026-05-05 20:07 42.78388 22.96580 35216 ft 482 kts 152°
2026-05-05 20:08 42.72479 23.01051 35216 ft 482 kts 152°
2026-05-05 20:08 42.66617 23.05493 35214 ft 483 kts 152°
2026-05-05 20:09 42.60758 23.09934 35216 ft 482 kts 152°
2026-05-05 20:09 42.54859 23.14389 35218 ft 481 kts 152°
2026-05-05 20:10 42.48994 23.18782 35213 ft 481 kts 152°
2026-05-05 20:10 42.43143 23.23164 35213 ft 481 kts 152°
2026-05-05 20:11 42.37497 23.28023 35215 ft 481 kts 141°
2026-05-05 20:11 42.32386 23.33946 35223 ft 481 kts 137°
2026-05-05 20:12 42.27515 23.40133 35230 ft 481 kts 135°
2026-05-05 20:12 42.22689 23.46413 35241 ft 481 kts 135°
2026-05-05 20:13 42.17507 23.52176 35242 ft 480 kts 146°
2026-05-05 20:13 42.12869 23.56408 35241 ft 481 kts 144°
2026-05-05 20:14 42.07466 23.61684 35235 ft 482 kts 143°
2026-05-05 20:14 42.02087 23.67116 35251 ft 482 kts 142°
2026-05-05 20:15 41.96700 23.72604 35250 ft 482 kts 142°
2026-05-05 20:15 41.91326 23.78085 35255 ft 482 kts 142°
2026-05-05 20:16 41.85939 23.83566 35240 ft 482 kts 142°
2026-05-05 20:16 41.80548 23.89034 35246 ft 483 kts 142°
2026-05-05 20:17 41.75179 23.94471 35253 ft 483 kts 142°
2026-05-05 20:17 41.69770 23.99941 35247 ft 483 kts 142°
2026-05-05 20:18 41.64415 24.05345 35249 ft 483 kts 142°
2026-05-05 20:18 41.59008 24.10796 35249 ft 484 kts 142°
2026-05-05 20:19 41.53618 24.16189 35243 ft 485 kts 145°
2026-05-05 20:19 41.47740 24.20677 35240 ft 484 kts 155°
2026-05-05 20:20 41.41595 24.24342 35237 ft 484 kts 158°
2026-05-05 20:20 41.35366 24.27789 35234 ft 485 kts 159°
2026-05-05 20:21 41.29121 24.31161 35232 ft 485 kts 159°
2026-05-05 20:21 41.22771 24.34576 35231 ft 486 kts 159°
2026-05-05 20:22 41.16502 24.37951 35220 ft 486 kts 159°
2026-05-05 20:22 41.10196 24.41344 35229 ft 487 kts 159°
2026-05-05 20:23 41.03926 24.44754 35225 ft 487 kts 157°
2026-05-05 20:23 40.97731 24.48563 35223 ft 487 kts 154°
2026-05-05 20:24 40.91612 24.52565 35216 ft 488 kts 153°
2026-05-05 20:24 40.85538 24.56602 35218 ft 489 kts 153°
2026-05-05 20:25 40.79424 24.60688 35217 ft 489 kts 153°
2026-05-05 20:25 40.73353 24.64737 35224 ft 489 kts 153°
2026-05-05 20:26 40.67276 24.68779 35216 ft 490 kts 153°
2026-05-05 20:26 40.61150 24.72844 35218 ft 490 kts 153°
2026-05-05 20:27 40.56042 24.76229 35222 ft 490 kts 153°
2026-05-05 20:27 40.49947 24.80264 35222 ft 490 kts 153°
2026-05-05 20:28 40.43864 24.84289 35221 ft 491 kts 153°
2026-05-05 20:28 40.37726 24.88357 35225 ft 491 kts 153°
2026-05-05 20:29 40.31623 24.92398 35224 ft 491 kts 153°
2026-05-05 20:29 40.25479 24.96461 35224 ft 491 kts 153°
2026-05-05 20:30 40.19380 25.00498 35218 ft 491 kts 153°
2026-05-05 20:30 40.13234 25.04581 35231 ft 493 kts 153°
2026-05-05 20:31 40.07108 25.08632 35232 ft 494 kts 153°
2026-05-05 20:31 40.00896 25.12730 35224 ft 494 kts 153°
2026-05-05 20:32 39.94715 25.16806 35214 ft 494 kts 153°
2026-05-05 20:32 39.88541 25.20874 35219 ft 494 kts 153°
2026-05-05 20:33 39.82404 25.24980 35212 ft 494 kts 149°
2026-05-05 20:33 39.77022 25.30464 35212 ft 490 kts 130°
2026-05-05 20:34 39.72966 25.37569 35221 ft 486 kts 118°
2026-05-05 20:34 39.69608 25.45175 35230 ft 485 kts 116°
2026-05-05 20:35 39.66002 25.52590 35216 ft 489 kts 127°
2026-05-05 20:35 39.61316 25.59084 35226 ft 491 kts 135°
2026-05-05 20:36 39.56207 25.65071 35239 ft 492 kts 140°
2026-05-05 20:36 39.50809 25.70504 35232 ft 492 kts 142°
2026-05-05 20:37 39.45250 25.75766 35232 ft 492 kts 143°
2026-05-05 20:37 39.39696 25.80932 35227 ft 492 kts 143°
2026-05-05 20:38 39.34089 25.86127 35233 ft 492 kts 143°
2026-05-05 20:38 39.28550 25.91263 35233 ft 492 kts 143°
2026-05-05 20:39 39.22947 25.96459 35244 ft 492 kts 143°
2026-05-05 20:39 39.17387 26.01623 35238 ft 493 kts 143°
2026-05-05 20:40 39.11823 26.06810 35228 ft 493 kts 143°
2026-05-05 20:40 39.06265 26.12006 35237 ft 494 kts 143°
2026-05-05 20:41 39.00664 26.17231 35241 ft 494 kts 142°
2026-05-05 20:41 38.96428 26.22170 35222 ft 490 kts 128°
2026-05-05 20:42 38.92491 26.29329 35243 ft 488 kts 118°
2026-05-05 20:42 38.89118 26.36843 35238 ft 488 kts 116°
2026-05-05 20:43 38.85591 26.44277 35222 ft 490 kts 127°
2026-05-05 20:43 38.80763 26.50563 35232 ft 493 kts 139°
2026-05-05 20:44 38.75340 26.55959 35235 ft 494 kts 145°
2026-05-05 20:44 38.69558 26.60751 35110 ft 495 kts 148°
2026-05-05 20:45 38.60675 26.67594 35067 ft 494 kts 149°
2026-05-05 20:45 38.54669 26.72135 35058 ft 496 kts 150°
2026-05-05 20:46 38.48746 26.76629 35067 ft 496 kts 149°
2026-05-05 20:46 38.42752 26.81182 35066 ft 496 kts 150°
2026-05-05 20:47 38.36692 26.85420 35053 ft 496 kts 153°
2026-05-05 20:47 38.30497 26.89447 35066 ft 496 kts 154°
2026-05-05 20:48 38.24346 26.93377 35064 ft 495 kts 154°
2026-05-05 20:48 38.18021 26.97410 35065 ft 495 kts 154°
2026-05-05 20:49 38.11783 27.01389 35064 ft 495 kts 154°
2026-05-05 20:49 38.05560 27.05366 35055 ft 495 kts 154°
2026-05-05 20:50 38.00256 27.08765 35061 ft 496 kts 154°
2026-05-05 20:50 37.94021 27.12767 35054 ft 496 kts 154°
2026-05-05 20:51 37.87802 27.16759 35051 ft 496 kts 154°
2026-05-05 20:51 37.81601 27.20741 35051 ft 496 kts 154°
2026-05-05 20:52 37.75364 27.24757 35052 ft 496 kts 154°
2026-05-05 20:52 37.69113 27.28786 35051 ft 496 kts 154°
2026-05-05 20:53 37.62926 27.32767 35052 ft 497 kts 154°
2026-05-05 20:53 37.56726 27.36756 35024 ft 496 kts 154°
2026-05-05 20:54 37.50545 27.40743 35038 ft 495 kts 154°
2026-05-05 20:54 37.44378 27.44728 35047 ft 495 kts 154°
2026-05-05 20:55 37.38196 27.48724 35057 ft 496 kts 154°
2026-05-05 20:55 37.32082 27.52681 35050 ft 495 kts 154°
2026-05-05 20:56 37.25915 27.56674 35044 ft 495 kts 154°
2026-05-05 20:56 37.20800 27.59984 35042 ft 495 kts 154°
2026-05-05 20:57 37.14643 27.63966 35042 ft 495 kts 154°
2026-05-05 20:57 37.08527 27.67919 35040 ft 495 kts 154°
2026-05-05 20:58 37.02332 27.71933 35032 ft 494 kts 154°
2026-05-05 20:58 36.96145 27.75960 35035 ft 495 kts 154°
2026-05-05 20:59 36.90034 27.79941 35038 ft 495 kts 154°
2026-05-05 20:59 36.83883 27.83948 35028 ft 495 kts 154°
2026-05-05 21:00 36.77746 27.87946 35037 ft 494 kts 154°
2026-05-05 21:00 36.71569 27.91977 35033 ft 494 kts 154°
2026-05-05 21:01 36.65480 27.95950 35013 ft 494 kts 154°
2026-05-05 21:01 36.59310 27.99972 35033 ft 494 kts 154°
2026-05-05 21:02 36.53175 28.03969 35007 ft 494 kts 154°
2026-05-05 21:02 36.46996 28.08004 35032 ft 495 kts 154°
2026-05-05 21:03 36.41023 28.11930 35002 ft 495 kts 154°
2026-05-05 21:03 36.34794 28.16038 35019 ft 494 kts 154°
2026-05-05 21:04 36.28964 28.20733 35001 ft 496 kts 141°
2026-05-05 21:04 36.24670 28.25446 35014 ft 499 kts 137°
2026-05-05 21:05 36.19507 28.31692 35015 ft 500 kts 135°
2026-05-05 21:05 36.15011 28.37311 35028 ft 500 kts 135°
2026-05-05 21:06 36.09643 28.44117 35021 ft 499 kts 135°
2026-05-05 21:06 36.04708 28.50358 35016 ft 499 kts 135°
2026-05-05 21:07 35.99724 28.56647 35014 ft 499 kts 135°
2026-05-05 21:07 35.94894 28.62730 34992 ft 500 kts 135°
2026-05-05 21:08 35.89975 28.68917 35020 ft 500 kts 135°
2026-05-05 21:08 35.85244 28.74898 35023 ft 499 kts 135°
2026-05-05 21:09 35.80297 28.81153 35020 ft 499 kts 135°
2026-05-05 21:09 35.75453 28.87266 35016 ft 499 kts 135°
2026-05-05 21:10 35.71354 28.92433 35015 ft 499 kts 135°
2026-05-05 21:10 35.66505 28.98542 35018 ft 498 kts 135°
2026-05-05 21:11 35.61638 29.04697 35006 ft 498 kts 135°
2026-05-05 21:11 35.56809 29.10813 35014 ft 499 kts 135°
2026-05-05 21:12 35.51972 29.16921 35020 ft 499 kts 136°
2026-05-05 21:12 35.46942 29.22799 35024 ft 498 kts 139°
2026-05-05 21:13 35.41745 29.28509 35032 ft 497 kts 140°
2026-05-05 21:13 35.36530 29.34141 35026 ft 497 kts 140°
2026-05-05 21:14 35.31326 29.39725 34995 ft 497 kts 140°
2026-05-05 21:14 35.26094 29.45357 35017 ft 498 kts 140°
2026-05-05 21:15 35.20860 29.51004 35020 ft 498 kts 140°
2026-05-05 21:15 35.15682 29.56599 35044 ft 497 kts 140°
2026-05-05 21:16 35.10475 29.62242 35033 ft 497 kts 140°
2026-05-05 21:16 35.05411 29.67739 35033 ft 497 kts 140°
2026-05-05 21:17 35.00164 29.73436 34998 ft 497 kts 140°
2026-05-05 21:17 34.95068 29.78976 35023 ft 497 kts 140°
2026-05-05 21:18 34.89834 29.84670 35025 ft 497 kts 140°
2026-05-05 21:18 34.84616 29.90361 35029 ft 497 kts 140°
2026-05-05 21:19 34.79440 29.96010 35033 ft 497 kts 140°
2026-05-05 21:19 34.74267 30.01657 35033 ft 497 kts 140°
2026-05-05 21:20 34.69961 30.06356 35030 ft 497 kts 140°
2026-05-05 21:20 34.64790 30.12001 35045 ft 496 kts 140°
2026-05-05 21:21 34.59636 30.17650 35042 ft 496 kts 140°
2026-05-05 21:21 34.54516 30.23277 35046 ft 496 kts 140°
2026-05-05 21:22 34.49389 30.28913 35045 ft 496 kts 140°
2026-05-05 21:22 34.44563 30.34217 35041 ft 496 kts 140°
2026-05-05 21:23 34.39060 30.40262 35047 ft 496 kts 140°
2026-05-05 21:23 34.34060 30.45767 35029 ft 495 kts 140°
2026-05-05 21:24 34.29688 30.50591 35036 ft 495 kts 140°
2026-05-05 21:24 34.24427 30.56400 35050 ft 495 kts 140°
2026-05-05 21:25 34.19299 30.62060 35051 ft 495 kts 140°
2026-05-05 21:25 34.14219 30.67662 35029 ft 495 kts 140°
2026-05-05 21:26 34.09099 30.73306 35038 ft 495 kts 140°
2026-05-05 21:26 34.04027 30.78897 35030 ft 495 kts 140°
2026-05-05 21:27 33.98915 30.84542 35038 ft 495 kts 140°
2026-05-05 21:27 33.93806 30.90192 35042 ft 495 kts 140°
2026-05-05 21:28 33.88771 30.95760 35049 ft 495 kts 140°
2026-05-05 21:28 33.83603 31.01488 35043 ft 494 kts 140°
2026-05-05 21:29 33.78524 31.07133 35045 ft 494 kts 140°
2026-05-05 21:29 33.73440 31.12786 35045 ft 494 kts 140°
2026-05-05 21:30 33.68370 31.18425 35035 ft 495 kts 140°
2026-05-05 21:30 33.63283 31.24084 35049 ft 495 kts 140°
2026-05-05 21:31 33.58210 31.29740 35049 ft 494 kts 140°
2026-05-05 21:31 33.53139 31.35411 35047 ft 494 kts 140°
2026-05-05 21:32 33.48060 31.41096 35047 ft 494 kts 140°
2026-05-05 21:32 33.43025 31.46727 35043 ft 494 kts 140°
2026-05-05 21:33 33.38006 31.52341 35026 ft 494 kts 140°
2026-05-05 21:33 33.32974 31.58000 35042 ft 492 kts 140°
2026-05-05 21:34 33.27971 31.63657 35049 ft 492 kts 140°
2026-05-05 21:34 33.23004 31.69282 35052 ft 492 kts 140°
2026-05-05 21:35 33.18852 31.73984 35055 ft 492 kts 140°
2026-05-05 21:35 33.13880 31.79611 35053 ft 491 kts 141°
2026-05-05 21:36 33.08393 31.84367 35043 ft 480 kts 156°
2026-05-05 21:36 33.02510 31.88105 35053 ft 480 kts 157°
2026-05-05 21:37 32.96604 31.91925 35051 ft 480 kts 156°
2026-05-05 21:37 32.90744 31.95766 35055 ft 480 kts 156°
2026-05-05 21:38 32.84899 31.99613 35051 ft 480 kts 156°
2026-05-05 21:38 32.79006 32.03496 35027 ft 481 kts 156°
2026-05-05 21:39 32.73171 32.07352 35048 ft 479 kts 156°
2026-05-05 21:39 32.67369 32.11215 35052 ft 478 kts 156°
2026-05-05 21:40 32.61536 32.15117 35058 ft 478 kts 156°
2026-05-05 21:40 32.55747 32.18993 35066 ft 478 kts 156°
2026-05-05 21:41 32.49925 32.22891 35031 ft 478 kts 156°
2026-05-05 21:41 32.44102 32.26792 35057 ft 477 kts 156°
2026-05-05 21:42 32.38331 32.30659 35055 ft 476 kts 156°
2026-05-05 21:42 32.32619 32.34487 35065 ft 477 kts 156°
2026-05-05 21:43 32.26802 32.38397 35071 ft 476 kts 156°
2026-05-05 21:43 32.21021 32.42300 35031 ft 475 kts 156°
2026-05-05 21:44 32.15304 32.46149 35055 ft 473 kts 156°
2026-05-05 21:44 32.09543 32.50012 35067 ft 473 kts 156°
2026-05-05 21:45 32.03825 32.53839 35070 ft 473 kts 156°
2026-05-05 21:45 31.98099 32.57672 35069 ft 473 kts 156°
2026-05-05 21:46 31.92375 32.61503 35050 ft 473 kts 156°
2026-05-05 21:46 31.86677 32.65336 35068 ft 471 kts 156°
2026-05-05 21:47 31.81005 32.69189 35072 ft 470 kts 156°
2026-05-05 21:47 31.75342 32.73049 35053 ft 470 kts 156°
2026-05-05 21:48 31.69653 32.76928 35065 ft 470 kts 156°
2026-05-05 21:48 31.63952 32.80814 35038 ft 470 kts 156°
2026-05-05 21:49 31.58310 32.84685 35057 ft 469 kts 156°
2026-05-05 21:49 31.52692 32.88564 35061 ft 469 kts 156°
2026-05-05 21:50 31.47079 32.92472 35062 ft 469 kts 156°
2026-05-05 21:50 31.41479 32.96399 35061 ft 469 kts 156°
2026-05-05 21:51 31.35875 33.00335 35059 ft 469 kts 156°
2026-05-05 21:51 31.30245 33.04290 35059 ft 469 kts 156°
2026-05-05 21:52 31.21855 33.10182 35057 ft 469 kts 156°
2026-05-05 21:53 31.16256 33.14112 35051 ft 469 kts 156°
2026-05-05 21:53 31.10665 33.18040 35041 ft 468 kts 156°
2026-05-05 21:54 31.05927 33.21257 35012 ft 464 kts 160°
2026-05-05 21:54 31.00161 33.24485 35044 ft 457 kts 163°
2026-05-05 21:55 30.94340 33.27456 35054 ft 456 kts 165°
2026-05-05 21:55 30.88200 33.30508 35054 ft 456 kts 165°
2026-05-05 21:56 30.82318 33.33406 35059 ft 456 kts 165°
2026-05-05 21:56 30.76474 33.36285 35035 ft 455 kts 165°
2026-05-05 21:57 30.70656 33.39165 35050 ft 454 kts 165°
2026-05-05 21:57 30.64848 33.42049 35060 ft 454 kts 165°
2026-05-05 21:58 30.59033 33.44940 35063 ft 454 kts 165°
2026-05-05 21:58 30.53187 33.47846 35059 ft 454 kts 165°
2026-05-05 21:59 30.47336 33.50755 35054 ft 454 kts 165°
2026-05-05 21:59 30.41640 33.53593 35059 ft 454 kts 165°
2026-05-05 22:00 30.35834 33.56487 35068 ft 454 kts 165°
2026-05-05 22:00 30.30041 33.59378 35071 ft 454 kts 165°
2026-05-05 22:01 30.24243 33.62272 35076 ft 454 kts 165°
2026-05-05 22:01 30.18448 33.65157 35064 ft 453 kts 165°
2026-05-05 22:02 30.12668 33.68025 35079 ft 453 kts 165°
2026-05-05 22:02 30.06846 33.70918 35078 ft 452 kts 165°
2026-05-05 22:03 30.01077 33.73795 35076 ft 451 kts 165°
2026-05-05 22:03 29.95311 33.76674 35044 ft 451 kts 165°
2026-05-05 22:04 29.89552 33.79541 35073 ft 450 kts 165°
2026-05-05 22:04 29.83803 33.82397 35081 ft 450 kts 165°
2026-05-05 22:05 29.78048 33.85254 35083 ft 450 kts 165°
2026-05-05 22:05 29.72296 33.88110 35087 ft 450 kts 165°
2026-05-05 22:06 29.66550 33.90964 35068 ft 450 kts 165°
2026-05-05 22:06 29.60790 33.93824 35084 ft 450 kts 165°
2026-05-05 22:07 29.55039 33.96681 35085 ft 450 kts 165°
2026-05-05 22:07 29.49298 33.99548 35088 ft 450 kts 165°
2026-05-05 22:08 29.43561 34.02414 35106 ft 450 kts 165°
2026-05-05 22:08 29.37817 34.05286 35083 ft 450 kts 165°
2026-05-05 22:09 29.32086 34.08156 35090 ft 449 kts 165°
2026-05-05 22:09 29.26348 34.11027 35091 ft 449 kts 165°
2026-05-05 22:10 29.20617 34.13888 35092 ft 449 kts 165°
2026-05-05 22:10 29.14855 34.16768 35083 ft 449 kts 165°
2026-05-05 22:11 29.10093 34.19152 35064 ft 449 kts 165°
2026-05-05 22:11 29.06207 34.21084 35089 ft 466 kts 165°
2026-05-05 22:11 29.03189 34.22568 35070 ft 473 kts 165°
2026-05-05 22:12 28.97109 34.25556 35057 ft 477 kts 165°
2026-05-05 22:12 28.92039 34.28050 35058 ft 478 kts 165°
2026-05-05 22:13 28.85927 34.31057 35061 ft 478 kts 165°
2026-05-05 22:13 28.79826 34.34053 35029 ft 478 kts 165°
2026-05-05 22:14 28.73681 34.37074 35030 ft 477 kts 165°
2026-05-05 22:14 28.67614 34.40054 35035 ft 477 kts 165°
2026-05-05 22:15 28.61483 34.43060 35029 ft 477 kts 165°
2026-05-05 22:15 28.55376 34.46017 34995 ft 477 kts 165°
2026-05-05 22:16 28.49299 34.48957 34990 ft 477 kts 164°
2026-05-05 22:16 28.43275 34.52258 34995 ft 480 kts 161°
2026-05-05 22:17 28.37373 34.55815 34977 ft 481 kts 160°
2026-05-05 22:17 28.31489 34.59464 34976 ft 481 kts 159°
2026-05-05 22:18 28.25628 34.63142 34944 ft 481 kts 159°
2026-05-05 22:18 28.19775 34.66813 34956 ft 480 kts 159°
2026-05-05 22:19 28.13891 34.70497 34957 ft 480 kts 159°
2026-05-05 22:19 28.08039 34.74156 34950 ft 480 kts 159°
2026-05-05 22:20 28.02222 34.77821 34952 ft 479 kts 159°
2026-05-05 22:20 27.96413 34.81496 34937 ft 479 kts 159°
2026-05-05 22:21 27.90442 34.84626 34968 ft 467 kts 168°
2026-05-05 22:21 27.84290 34.86867 34970 ft 462 kts 172°
2026-05-05 22:22 27.78100 34.88819 34964 ft 461 kts 173°
2026-05-05 22:22 27.71912 34.90683 34963 ft 461 kts 174°
2026-05-05 22:23 27.65727 34.92636 34945 ft 463 kts 171°
2026-05-05 22:23 27.59526 34.94915 34952 ft 466 kts 170°
2026-05-05 22:24 27.53394 34.97293 34964 ft 467 kts 169°
2026-05-05 22:24 27.47263 34.99708 34953 ft 467 kts 169°
2026-05-05 22:25 27.41145 35.02146 34920 ft 467 kts 169°
2026-05-05 22:25 27.35038 35.04601 34951 ft 466 kts 169°
2026-05-05 22:26 27.28971 35.07248 34946 ft 473 kts 164°
2026-05-05 22:26 27.23095 35.10684 34953 ft 479 kts 160°
2026-05-05 22:27 27.17309 35.14455 34956 ft 481 kts 158°
2026-05-05 22:27 27.11568 35.18311 34932 ft 482 kts 158°
2026-05-05 22:28 27.05837 35.22218 34945 ft 482 kts 158°
2026-05-05 22:28 27.00109 35.26116 34936 ft 481 kts 158°
2026-05-05 22:29 26.94395 35.30005 34936 ft 482 kts 158°
2026-05-05 22:29 26.88665 35.33906 34939 ft 481 kts 158°
2026-05-05 22:30 26.82909 35.37823 34941 ft 481 kts 158°
2026-05-05 22:30 26.77176 35.41724 34933 ft 481 kts 158°
2026-05-05 22:31 26.71492 35.45595 34938 ft 482 kts 158°
2026-05-05 22:31 26.65764 35.49483 34941 ft 481 kts 159°
2026-05-05 22:32 26.60111 35.53541 34935 ft 491 kts 150°
2026-05-05 22:32 26.57566 35.56132 34926 ft 502 kts 142°
2026-05-05 22:32 26.55313 35.59174 34926 ft 513 kts 133°
2026-05-05 22:33 26.51947 35.66329 34921 ft 533 kts 116°
2026-05-05 22:33 26.50069 35.74419 34929 ft 541 kts 110°
2026-05-05 22:34 26.48049 35.82469 34922 ft 537 kts 114°
2026-05-05 22:34 26.45740 35.90373 34921 ft 535 kts 116°
2026-05-05 22:35 26.43334 35.98239 34924 ft 535 kts 116°
2026-05-05 22:35 26.40901 36.06075 34924 ft 535 kts 116°
2026-05-05 22:36 26.38442 36.13957 34921 ft 535 kts 116°
2026-05-05 22:36 26.35996 36.21784 34925 ft 535 kts 116°
2026-05-05 22:37 26.33547 36.29613 34923 ft 534 kts 116°
2026-05-05 22:37 26.31098 36.37426 34932 ft 534 kts 116°
2026-05-05 22:38 26.28643 36.45247 34937 ft 534 kts 116°
2026-05-05 22:38 26.26191 36.53057 34925 ft 534 kts 116°
2026-05-05 22:39 26.23737 36.60871 34916 ft 534 kts 116°
2026-05-05 22:39 26.21281 36.68688 34923 ft 534 kts 116°
2026-05-05 22:40 26.18825 36.76503 34915 ft 534 kts 116°
2026-05-05 22:40 26.16378 36.84313 34920 ft 535 kts 116°
2026-05-05 22:41 26.13932 36.92132 34929 ft 535 kts 116°
2026-05-05 22:41 26.11472 36.99999 34918 ft 535 kts 116°
2026-05-05 22:42 26.09034 37.07820 34935 ft 535 kts 116°
2026-05-05 22:42 26.06607 37.15641 34942 ft 535 kts 116°
2026-05-05 22:43 26.04182 37.23467 34937 ft 535 kts 116°
2026-05-05 22:43 26.01773 37.31281 34947 ft 535 kts 116°
2026-05-05 22:44 25.99772 37.37797 34953 ft 536 kts 116°
2026-05-05 22:44 25.97368 37.45641 34959 ft 536 kts 116°
2026-05-05 22:45 25.94958 37.53524 34966 ft 536 kts 116°
2026-05-05 22:45 25.92567 37.61383 34952 ft 537 kts 116°
2026-05-05 22:46 25.90176 37.69250 34960 ft 537 kts 116°
2026-05-05 22:46 25.87570 37.76971 34943 ft 530 kts 121°
2026-05-05 22:47 25.84505 37.84382 34938 ft 527 kts 124°
2026-05-05 22:47 25.81273 37.91689 34899 ft 524 kts 125°
2026-05-05 22:48 25.77995 37.98954 34896 ft 523 kts 125°
2026-05-05 22:48 25.74728 38.06151 34901 ft 521 kts 125°
2026-05-05 22:49 25.71462 38.13321 34910 ft 521 kts 125°
2026-05-05 22:49 25.68194 38.20504 34897 ft 521 kts 125°
2026-05-05 22:50 25.64932 38.27678 34923 ft 521 kts 125°
2026-05-05 22:50 25.61673 38.34851 34925 ft 521 kts 125°
2026-05-05 22:51 25.58407 38.42044 34930 ft 521 kts 125°
2026-05-05 22:51 25.55292 38.49363 34950 ft 527 kts 120°
2026-05-05 22:52 25.52915 38.56692 34942 ft 533 kts 115°
2026-05-05 22:52 25.50713 38.64539 34939 ft 534 kts 114°
2026-05-05 22:53 25.48613 38.72446 34944 ft 535 kts 113°
2026-05-05 22:53 25.46565 38.80363 34960 ft 535 kts 113°
2026-05-05 22:54 25.44494 38.88276 34972 ft 535 kts 114°
2026-05-05 22:54 25.42413 38.96178 34974 ft 536 kts 114°
2026-05-05 22:55 25.40325 39.04091 34987 ft 536 kts 114°
2026-05-05 22:55 25.38236 39.12004 34986 ft 536 kts 114°
2026-05-05 22:56 25.36146 39.19922 34988 ft 536 kts 114°
2026-05-05 22:56 25.34045 39.27882 34998 ft 536 kts 114°
2026-05-05 22:57 25.31954 39.35801 34988 ft 536 kts 114°
2026-05-05 22:57 25.29865 39.43717 35000 ft 537 kts 114°
2026-05-05 22:58 25.27760 39.51689 35010 ft 537 kts 114°
2026-05-05 22:58 25.25658 39.59642 35006 ft 537 kts 114°
2026-05-05 22:59 25.23567 39.67562 35012 ft 537 kts 114°
2026-05-05 22:59 25.21477 39.75494 35014 ft 537 kts 114°
2026-05-05 23:00 25.18348 39.87373 35009 ft 538 kts 114°
2026-05-05 23:00 25.16263 39.95304 35004 ft 538 kts 114°
2026-05-05 23:01 25.14174 40.03243 34994 ft 538 kts 114°
2026-05-05 23:01 25.12073 40.11234 35003 ft 539 kts 114°
2026-05-05 23:02 25.10002 40.19124 34995 ft 539 kts 114°
2026-05-05 23:02 25.07902 40.27117 34997 ft 539 kts 114°
2026-05-05 23:03 25.05819 40.35064 34991 ft 539 kts 114°
2026-05-05 23:03 25.03744 40.43009 34979 ft 540 kts 114°
2026-05-05 23:04 25.01668 40.50966 34963 ft 539 kts 114°
2026-05-05 23:04 24.99593 40.58904 34971 ft 539 kts 114°
2026-05-05 23:05 24.97500 40.66897 34971 ft 539 kts 114°
2026-05-05 23:05 24.95425 40.74818 34972 ft 539 kts 114°
2026-05-05 23:06 24.93336 40.82760 34969 ft 538 kts 115°
2026-05-05 23:06 24.91038 40.90562 34968 ft 532 kts 120°
2026-05-05 23:07 24.87672 40.97616 34960 ft 508 kts 137°
2026-05-05 23:07 24.85406 41.00522 34966 ft 495 kts 146°
2026-05-05 23:07 24.82866 41.03028 34947 ft 487 kts 152°
2026-05-05 23:08 24.77448 41.07394 34962 ft 481 kts 156°
2026-05-05 23:08 24.71844 41.11357 34969 ft 477 kts 159°
2026-05-05 23:09 24.66199 41.15222 34963 ft 479 kts 158°
2026-05-05 23:09 24.60569 41.19158 34979 ft 480 kts 157°
2026-05-05 23:10 24.55154 41.23562 34967 ft 494 kts 146°
2026-05-05 23:10 24.52781 41.26354 34973 ft 505 kts 138°
2026-05-05 23:10 24.50715 41.29523 34975 ft 515 kts 131°
2026-05-05 23:11 24.47774 41.35316 34970 ft 523 kts 124°
2026-05-05 23:11 24.44646 41.42568 34977 ft 527 kts 121°
2026-05-05 23:12 24.41786 41.50002 34980 ft 530 kts 119°
2026-05-05 23:12 24.39197 41.57599 34966 ft 534 kts 115°
2026-05-05 23:13 24.37001 41.65404 34978 ft 536 kts 112°
2026-05-05 23:13 24.35011 41.73297 34975 ft 538 kts 111°
2026-05-05 23:14 24.33238 41.81292 34995 ft 540 kts 109°
2026-05-05 23:14 24.31661 41.89356 34984 ft 542 kts 108°
2026-05-05 23:15 24.30097 41.97501 34984 ft 542 kts 109°
2026-05-05 23:15 24.28477 42.05539 34971 ft 540 kts 109°
2026-05-05 23:16 24.26792 42.13560 34980 ft 539 kts 110°
2026-05-05 23:16 24.25041 42.21615 34967 ft 539 kts 110°
2026-05-05 23:17 24.23280 42.29570 34971 ft 537 kts 110°
2026-05-05 23:17 24.21513 42.37512 34981 ft 537 kts 110°
2026-05-05 23:18 24.19745 42.45456 34974 ft 536 kts 110°
2026-05-05 23:18 24.17982 42.53369 34982 ft 535 kts 110°
2026-05-05 23:19 24.16220 42.61294 34982 ft 535 kts 110°
2026-05-05 23:19 24.14456 42.69200 34979 ft 534 kts 110°
2026-05-05 23:20 24.12669 42.77140 34994 ft 533 kts 110°
2026-05-05 23:20 24.10896 42.85000 34980 ft 533 kts 110°
2026-05-05 23:21 24.09118 42.92880 34977 ft 533 kts 110°
2026-05-05 23:21 24.07352 43.00719 34973 ft 533 kts 110°
2026-05-05 23:22 24.05580 43.08623 34984 ft 531 kts 110°
2026-05-05 23:22 24.03824 43.16489 34987 ft 531 kts 110°
2026-05-05 23:23 24.02070 43.24328 34973 ft 531 kts 109°
2026-05-05 23:23 24.00304 43.32169 34980 ft 531 kts 110°
2026-05-05 23:24 23.98539 43.40008 34982 ft 530 kts 109°
2026-05-05 23:24 23.96753 43.47824 34979 ft 529 kts 112°
2026-05-05 23:25 23.94367 43.55386 34977 ft 525 kts 117°
2026-05-05 23:25 23.91647 43.62774 34969 ft 523 kts 118°
2026-05-05 23:26 23.88813 43.70152 34955 ft 523 kts 119°
2026-05-05 23:26 23.85946 43.77469 34952 ft 523 kts 119°
2026-05-05 23:27 23.83062 43.84766 34936 ft 523 kts 119°
2026-05-05 23:27 23.80182 43.92006 34939 ft 523 kts 120°
2026-05-05 23:28 23.77256 43.99323 34934 ft 522 kts 120°
2026-05-05 23:28 23.74338 44.06587 34925 ft 522 kts 120°
2026-05-05 23:29 23.71413 44.13829 34928 ft 521 kts 120°
2026-05-05 23:29 23.68482 44.21060 34929 ft 521 kts 120°
2026-05-05 23:30 23.65547 44.28272 34918 ft 520 kts 120°
2026-05-05 23:30 23.62596 44.35476 34924 ft 519 kts 120°
2026-05-05 23:31 23.59833 44.42765 34903 ft 525 kts 111°
2026-05-05 23:31 23.58551 44.50697 34908 ft 534 kts 97°
2026-05-05 23:32 23.58344 44.58817 34916 ft 537 kts 93°
2026-05-05 23:32 23.58460 44.66958 34919 ft 539 kts 92°
2026-05-05 23:33 23.58711 44.75126 34915 ft 539 kts 91°
2026-05-05 23:33 23.58975 44.83304 34908 ft 539 kts 91°
2026-05-05 23:34 23.59217 44.91477 34908 ft 539 kts 91°
2026-05-05 23:34 23.59446 44.99657 34906 ft 539 kts 91°
2026-05-05 23:35 23.59657 45.07816 34901 ft 538 kts 91°
2026-05-05 23:35 23.59840 45.15980 34904 ft 538 kts 92°
2026-05-05 23:36 23.60016 45.24115 34897 ft 538 kts 92°
2026-05-05 23:36 23.60197 45.32222 34892 ft 538 kts 92°
2026-05-05 23:37 23.60382 45.40477 34887 ft 538 kts 92°
2026-05-05 23:37 23.60560 45.48610 34868 ft 537 kts 91°
2026-05-05 23:38 23.60712 45.56734 34870 ft 536 kts 92°
2026-05-05 23:38 23.60852 45.64861 34870 ft 536 kts 92°
2026-05-05 23:39 23.60986 45.72996 34863 ft 536 kts 92°
2026-05-05 23:39 23.61117 45.81131 34860 ft 537 kts 92°
2026-05-05 23:40 23.61244 45.89277 34858 ft 537 kts 92°
2026-05-05 23:40 23.61349 45.96095 34861 ft 537 kts 92°
2026-05-05 23:41 23.61473 46.04230 34867 ft 537 kts 92°
2026-05-05 23:41 23.61599 46.12391 34873 ft 538 kts 92°
2026-05-05 23:42 23.61725 46.20531 34879 ft 538 kts 92°
2026-05-05 23:42 23.61852 46.28680 34884 ft 538 kts 92°
2026-05-05 23:43 23.61977 46.36828 34891 ft 537 kts 92°
2026-05-05 23:43 23.62101 46.45041 34888 ft 538 kts 92°
2026-05-05 23:44 23.61686 46.53132 34882 ft 532 kts 103°
2026-05-05 23:44 23.60097 46.61010 34884 ft 528 kts 109°
2026-05-05 23:45 23.58110 46.68711 34853 ft 527 kts 110°
2026-05-05 23:45 23.56002 46.76355 34862 ft 526 kts 111°
2026-05-05 23:46 23.53824 46.84023 34852 ft 526 kts 111°
2026-05-05 23:46 23.51667 46.91638 34854 ft 526 kts 111°
2026-05-05 23:47 23.49518 46.99260 34848 ft 526 kts 111°
2026-05-05 23:47 23.47372 47.06890 34822 ft 526 kts 111°
2026-05-05 23:48 23.45785 47.14666 34824 ft 529 kts 100°
2026-05-05 23:48 23.45117 47.22669 34824 ft 530 kts 96°
2026-05-05 23:49 23.44759 47.30737 34828 ft 531 kts 95°
2026-05-05 23:49 23.44494 47.38768 34826 ft 531 kts 94°
2026-05-05 23:50 23.44262 47.46805 34827 ft 530 kts 94°
2026-05-05 23:50 23.44021 47.54820 34829 ft 530 kts 94°
2026-05-05 23:51 23.43782 47.62837 34827 ft 529 kts 94°
2026-05-05 23:51 23.43855 47.70852 34817 ft 528 kts 90°
2026-05-05 23:52 23.44188 47.78841 34836 ft 528 kts 89°
2026-05-05 23:52 23.44587 47.86638 34826 ft 527 kts 88°
2026-05-05 23:53 23.45022 47.94618 34817 ft 527 kts 88°
2026-05-05 23:53 23.45453 48.02584 34815 ft 527 kts 88°
2026-05-05 23:54 23.45873 48.10562 34808 ft 528 kts 89°
2026-05-05 23:54 23.46217 48.18622 34798 ft 529 kts 89°
2026-05-05 23:55 23.46609 48.26618 34803 ft 530 kts 88°
2026-05-05 23:55 23.47022 48.34634 34798 ft 531 kts 88°
2026-05-05 23:56 23.47425 48.42555 34800 ft 531 kts 88°
2026-05-05 23:56 23.47825 48.50588 34795 ft 532 kts 88°
2026-05-05 23:57 23.48212 48.58635 34792 ft 531 kts 88°
2026-05-05 23:57 23.48590 48.66663 34791 ft 531 kts 88°
2026-05-05 23:58 23.48965 48.74705 34785 ft 531 kts 88°
2026-05-05 23:58 23.49337 48.82732 34786 ft 531 kts 88°
2026-05-05 23:59 23.49711 48.90838 34785 ft 531 kts 88°
2026-05-05 23:59 23.50082 48.98864 34783 ft 531 kts 88°
2026-05-06 00:00 23.50455 49.06914 34780 ft 531 kts 88°
2026-05-06 00:00 23.50831 49.14957 34781 ft 532 kts 88°
2026-05-06 00:01 23.51209 49.23002 34778 ft 532 kts 88°
2026-05-06 00:01 23.51588 49.31092 34775 ft 532 kts 89°
2026-05-06 00:02 23.51966 49.39129 34767 ft 531 kts 89°
2026-05-06 00:02 23.52354 49.47150 34773 ft 529 kts 89°
2026-05-06 00:03 23.52748 49.55157 34769 ft 529 kts 88°
2026-05-06 00:03 23.53146 49.63153 34781 ft 528 kts 88°
2026-05-06 00:04 23.53544 49.71142 34781 ft 528 kts 88°
2026-05-06 00:04 23.53944 49.79150 34779 ft 529 kts 88°
2026-05-06 00:05 23.54542 49.91143 34781 ft 529 kts 88°
2026-05-06 00:06 23.54944 49.99158 34767 ft 529 kts 88°
2026-05-06 00:06 23.55278 50.05867 34781 ft 530 kts 88°
2026-05-06 00:07 23.55745 50.15246 34763 ft 530 kts 88°
2026-05-06 00:07 23.56077 50.21916 34761 ft 530 kts 88°
2026-05-06 00:08 23.56476 50.29944 34763 ft 531 kts 88°
2026-05-06 00:08 23.56874 50.37977 34769 ft 529 kts 88°
2026-05-06 00:09 23.57270 50.46036 34762 ft 528 kts 88°
2026-05-06 00:09 23.57662 50.54033 34763 ft 528 kts 88°
2026-05-06 00:10 23.58053 50.62021 34758 ft 528 kts 88°
2026-05-06 00:10 23.58445 50.70015 34769 ft 528 kts 88°
2026-05-06 00:11 23.58835 50.77995 34773 ft 528 kts 88°
2026-05-06 00:11 23.59225 50.85989 34772 ft 528 kts 88°
2026-05-06 00:12 23.59614 50.93985 34769 ft 528 kts 88°
2026-05-06 00:12 23.60006 51.02027 34757 ft 528 kts 88°
2026-05-06 00:13 23.60394 51.10019 34756 ft 528 kts 88°
2026-05-06 00:13 23.60783 51.18006 34771 ft 528 kts 88°
2026-05-06 00:14 23.61174 51.26006 34756 ft 528 kts 88°
2026-05-06 00:14 23.61566 51.33987 34766 ft 528 kts 88°
2026-05-06 00:15 23.61956 51.41955 34765 ft 525 kts 88°
2026-05-06 00:15 23.62342 51.49913 34763 ft 525 kts 88°
2026-05-06 00:16 23.62728 51.57859 34764 ft 525 kts 88°
2026-05-06 00:16 23.63117 51.65859 34767 ft 524 kts 88°
2026-05-06 00:17 23.63502 51.73788 34764 ft 524 kts 88°
2026-05-06 00:17 23.63888 51.81736 34770 ft 524 kts 88°
2026-05-06 00:18 23.64277 51.89690 34768 ft 525 kts 88°
2026-05-06 00:18 23.64669 51.97684 34763 ft 525 kts 88°
2026-05-06 00:19 23.65060 52.05616 34762 ft 524 kts 88°
2026-05-06 00:19 23.65452 52.13566 34762 ft 524 kts 88°
2026-05-06 00:20 23.65842 52.21496 34761 ft 524 kts 88°
2026-05-06 00:20 23.66231 52.29429 34763 ft 524 kts 88°
2026-05-06 00:21 23.66619 52.37363 34764 ft 524 kts 88°
2026-05-06 00:21 23.67004 52.45296 34764 ft 523 kts 88°
2026-05-06 00:22 23.67387 52.53220 34771 ft 523 kts 88°
2026-05-06 00:22 23.67768 52.61136 34769 ft 523 kts 88°
2026-05-06 00:23 23.68149 52.69064 34774 ft 523 kts 88°
2026-05-06 00:23 23.68531 52.76985 34763 ft 523 kts 88°
2026-05-06 00:24 23.68915 52.84963 34762 ft 523 kts 88°
2026-05-06 00:24 23.69298 52.92886 34766 ft 523 kts 88°
2026-05-06 00:25 23.69681 53.00803 34768 ft 523 kts 88°
2026-05-06 00:25 23.70065 53.08728 34777 ft 523 kts 88°
2026-05-06 00:26 23.70450 53.16662 34770 ft 523 kts 88°
2026-05-06 00:26 23.70837 53.24587 34773 ft 523 kts 88°
2026-05-06 00:27 23.71224 53.32519 34771 ft 524 kts 88°
2026-05-06 00:27 23.71613 53.40466 34775 ft 524 kts 88°
2026-05-06 00:28 23.72002 53.48391 34782 ft 524 kts 88°
2026-05-06 00:28 23.72391 53.56329 34772 ft 523 kts 88°
2026-05-06 00:29 23.72781 53.64265 34775 ft 523 kts 88°
2026-05-06 00:29 23.73174 53.72246 34781 ft 523 kts 88°
2026-05-06 00:30 23.73565 53.80169 34775 ft 523 kts 88°
2026-05-06 00:30 23.73958 53.88117 34780 ft 524 kts 88°
2026-05-06 00:31 23.74350 53.96041 34782 ft 524 kts 88°
2026-05-06 00:31 23.74744 54.03985 34783 ft 524 kts 88°
2026-05-06 00:32 23.75133 54.11916 34779 ft 524 kts 88°
2026-05-06 00:32 23.75521 54.19841 34782 ft 524 kts 88°
2026-05-06 00:33 23.75908 54.27779 34783 ft 524 kts 88°
2026-05-06 00:33 23.76297 54.35732 34780 ft 524 kts 88°
2026-05-06 00:34 23.76684 54.43677 34779 ft 524 kts 88°
2026-05-06 00:34 23.77249 54.51646 34773 ft 524 kts 81°
2026-05-06 00:35 23.79340 54.59249 34765 ft 523 kts 64°
2026-05-06 00:35 23.83135 54.66000 34599 ft 524 kts 51°
2026-05-06 00:35 23.84624 54.68074 34292 ft 523 kts 49°
2026-05-06 00:36 23.86945 54.71196 33538 ft 521 kts 52°
2026-05-06 00:36 23.88953 54.74468 32831 ft 515 kts 59°
2026-05-06 00:36 23.90522 54.77947 32197 ft 509 kts 68°
2026-05-06 00:36 23.91675 54.81576 31585 ft 503 kts 73°
2026-05-06 00:37 23.92550 54.85249 30992 ft 497 kts 77°
2026-05-06 00:37 23.93266 54.88913 30414 ft 491 kts 78°
2026-05-06 00:37 23.93891 54.92557 29841 ft 485 kts 79°
2026-05-06 00:37 23.94463 54.96171 29185 ft 479 kts 80°
2026-05-06 00:38 23.95002 54.99741 28543 ft 473 kts 80°
2026-05-06 00:38 23.95516 55.03267 27899 ft 467 kts 80°
2026-05-06 00:38 23.96008 55.06751 27276 ft 461 kts 81°
2026-05-06 00:38 23.96492 55.10201 26664 ft 456 kts 81°
2026-05-06 00:39 23.96979 55.13649 26063 ft 450 kts 80°
2026-05-06 00:39 23.97449 55.16961 25496 ft 445 kts 80°
2026-05-06 00:39 23.97928 55.20322 24925 ft 440 kts 80°
2026-05-06 00:39 23.98396 55.23605 24362 ft 435 kts 80°
2026-05-06 00:40 23.98868 55.26856 23868 ft 429 kts 78°
2026-05-06 00:40 23.99573 55.30006 23425 ft 424 kts 70°
2026-05-06 00:40 24.00727 55.32939 22897 ft 418 kts 59°
2026-05-06 00:40 24.02258 55.35615 22393 ft 412 kts 53°
2026-05-06 00:41 24.03966 55.38094 21888 ft 408 kts 50°
2026-05-06 00:41 24.05760 55.40484 21387 ft 403 kts 48°
2026-05-06 00:41 24.07574 55.42809 20899 ft 399 kts 47°
2026-05-06 00:41 24.09387 55.45087 20423 ft 395 kts 47°
2026-05-06 00:42 24.11193 55.47329 19955 ft 391 kts 47°
2026-05-06 00:42 24.12989 55.49560 19487 ft 387 kts 47°
2026-05-06 00:42 24.14752 55.51758 19029 ft 383 kts 47°
2026-05-06 00:42 24.16530 55.53979 18571 ft 379 kts 47°
2026-05-06 00:43 24.18236 55.56110 18129 ft 375 kts 47°
2026-05-06 00:43 24.19967 55.58272 17638 ft 371 kts 48°
2026-05-06 00:43 24.21665 55.60391 17217 ft 369 kts 47°
2026-05-06 00:43 24.23347 55.62499 16845 ft 367 kts 47°
2026-05-06 00:44 24.25027 55.64607 16478 ft 366 kts 47°
2026-05-06 00:44 24.26698 55.66708 16108 ft 365 kts 47°
2026-05-06 00:44 24.28363 55.68807 15750 ft 364 kts 48°
2026-05-06 00:44 24.30020 55.70895 15376 ft 363 kts 48°
2026-05-06 00:45 24.31676 55.72983 15029 ft 362 kts 48°
2026-05-06 00:45 24.33325 55.75059 14686 ft 360 kts 48°
2026-05-06 00:45 24.34972 55.77124 14349 ft 359 kts 48°
2026-05-06 00:45 24.36610 55.79173 14004 ft 358 kts 47°
2026-05-06 00:46 24.38246 55.81222 13668 ft 356 kts 47°
2026-05-06 00:46 24.39877 55.83268 13291 ft 355 kts 47°
2026-05-06 00:46 24.41498 55.85305 12915 ft 354 kts 48°
2026-05-06 00:46 24.43115 55.87333 12543 ft 352 kts 48°
2026-05-06 00:47 24.44720 55.89344 12187 ft 350 kts 48°
2026-05-06 00:47 24.46329 55.91355 11828 ft 349 kts 48°
2026-05-06 00:47 24.47945 55.93368 11461 ft 347 kts 48°
2026-05-06 00:47 24.49523 55.95329 11097 ft 346 kts 48°
2026-05-06 00:48 24.51141 55.97333 10738 ft 344 kts 48°
2026-05-06 00:48 24.52730 55.99293 10373 ft 343 kts 48°
2026-05-06 00:48 24.54376 56.01181 9907 ft 342 kts 41°
2026-05-06 00:48 24.56295 56.02694 9336 ft 338 kts 28°
2026-05-06 00:49 24.58453 56.03613 8685 ft 329 kts 12°
2026-05-06 00:49 24.60702 56.03866 8024 ft 322 kts 358°
2026-05-06 00:49 24.62904 56.03659 7473 ft 313 kts 351°
2026-05-06 00:49 24.64973 56.03147 7115 ft 299 kts 339°
2026-05-06 00:50 24.66756 56.02088 6785 ft 286 kts 323°
2026-05-06 00:50 24.68279 56.00748 6524 ft 274 kts 317°
2026-05-06 00:50 24.69654 55.99381 6442 ft 255 kts 316°
2026-05-06 00:50 24.70946 55.98034 6820 ft 269 kts 315°
2026-05-06 00:51 24.72366 55.96549 7273 ft 284 kts 315°
2026-05-06 00:51 24.73827 55.95049 7698 ft 290 kts 316°
2026-05-06 00:51 24.75310 55.93541 8117 ft 292 kts 316°
2026-05-06 00:51 24.76813 55.92028 8577 ft 294 kts 316°
2026-05-06 00:52 24.78340 55.90504 9007 ft 296 kts 316°
2026-05-06 00:52 24.79870 55.88983 9443 ft 298 kts 316°
2026-05-06 00:52 24.81427 55.87439 9479 ft 302 kts 317°
2026-05-06 00:52 24.82988 55.85901 9261 ft 300 kts 315°
2026-05-06 00:53 24.84477 55.84297 9091 ft 298 kts 313°
2026-05-06 00:53 24.85913 55.82648 9014 ft 297 kts 311°
2026-05-06 00:53 24.87323 55.80989 9059 ft 297 kts 311°
2026-05-06 00:53 24.88730 55.79327 9162 ft 298 kts 311°
2026-05-06 00:54 24.90152 55.77659 9205 ft 299 kts 311°
2026-05-06 00:54 24.91594 55.75977 8961 ft 301 kts 313°
2026-05-06 00:54 24.93148 55.74444 8593 ft 300 kts 321°
2026-05-06 00:54 24.94854 55.73133 8178 ft 299 kts 326°
2026-05-06 00:55 24.96612 55.71934 7735 ft 297 kts 328°
2026-05-06 00:55 24.98383 55.70774 7378 ft 290 kts 328°
2026-05-06 00:55 25.00105 55.69659 6998 ft 281 kts 328°
2026-05-06 00:55 25.01755 55.68620 6564 ft 271 kts 331°
2026-05-06 00:56 25.03499 55.67871 6031 ft 267 kts 341°
2026-05-06 00:56 25.05311 55.67338 5522 ft 264 kts 346°
2026-05-06 00:56 25.07073 55.66788 5008 ft 262 kts 341°
2026-05-06 00:56 25.08747 55.66021 4512 ft 255 kts 332°
2026-05-06 00:57 25.10063 55.64749 3935 ft 259 kts 308°
2026-05-06 00:57 25.10859 55.63006 3355 ft 243 kts 292°
2026-05-06 00:57 25.11544 55.61339 2834 ft 235 kts 298°
2026-05-06 00:57 25.12409 55.59806 2327 ft 232 kts 304°
2026-05-06 00:58 25.13292 55.58346 2056 ft 230 kts 303°
2026-05-06 00:58 25.14108 55.56897 1888 ft 211 kts 301°
2026-05-06 00:58 25.14827 55.55582 1767 ft 197 kts 302°
2026-05-06 00:58 25.15501 55.54365 1714 ft 179 kts 302°
2026-05-06 00:59 25.16141 55.53208 1740 ft 175 kts 302°
2026-05-06 00:59 25.16768 55.52061 1757 ft 173 kts 302°
2026-05-06 00:59 25.17381 55.50922 1765 ft 173 kts 302°
2026-05-06 00:59 25.17982 55.49804 1765 ft 172 kts 302°
2026-05-06 01:00 25.18591 55.48678 1753 ft 173 kts 303°
2026-05-06 01:00 25.19213 55.47544 1612 ft 172 kts 303°
2026-05-06 01:00 25.19833 55.46418 1390 ft 172 kts 302°
2026-05-06 01:00 25.20453 55.45298 1181 ft 170 kts 302°
2026-05-06 01:01 25.21072 55.44171 968 ft 169 kts 302°
2026-05-06 01:01 25.21673 55.43083 780 ft 167 kts 302°
2026-05-06 01:01 25.22095 55.42307 638 ft 165 kts 301°
2026-05-06 01:01 25.22636 55.41209 381 ft 161 kts 300°
2026-05-06 01:02 25.23195 55.40195 218 ft 149 kts 302°
2026-05-06 01:02 25.23736 55.39230 31 ft 142 kts 301°
2026-05-06 01:02 25.24056 55.38647 28 ft 41 kts 301°
2026-05-06 01:02 25.24162 55.38453 29 ft 29 kts 301°
2026-05-06 01:03 25.24270 55.38260 31 ft 30 kts 304°
2026-05-06 01:03 25.24253 55.38094 28 ft 17 kts 219°
2026-05-06 01:03 25.24210 55.38030 27 ft 11 kts 259°
2026-05-06 01:03 25.24230 55.37963 27 ft 10 kts 297°
2026-05-06 01:04 25.24254 55.37915 26 ft 6 kts 300°
2026-05-06 01:04 25.24284 55.37856 26 ft 11 kts 293°
2026-05-06 01:04 25.24269 55.37768 25 ft 11 kts 252°
2026-05-06 01:04 25.24278 55.37696 30 ft 10 kts 294°
2026-05-06 01:05 25.24318 55.37620 30 ft 14 kts 301°
2026-05-06 01:05 25.24374 55.37519 29 ft 6 kts 303°
2026-05-06 01:05 25.24374 55.37518 29 ft 0 kts 303°
2026-05-06 01:05 25.24377 55.37513 30 ft 3 kts 303°
2026-05-06 01:06 25.24398 55.37478 30 ft 8 kts 303°
2026-05-06 01:06 25.24431 55.37420 31 ft 7 kts 302°
2026-05-06 01:06 25.24468 55.37356 31 ft 12 kts 302°
2026-05-06 01:06 25.24518 55.37267 30 ft 6 kts 302°
2026-05-06 01:07 25.24520 55.37263 28 ft 2 kts 302°
2026-05-06 01:07 25.24555 55.37202 29 ft 18 kts 302°
2026-05-06 01:07 25.24625 55.37076 26 ft 20 kts 302°
2026-05-06 01:07 25.24705 55.36933 26 ft 24 kts 301°
2026-05-06 01:08 25.24773 55.36759 26 ft 26 kts 285°
2026-05-06 01:08 25.24833 55.36587 26 ft 2 kts 300°
2026-05-06 01:08 25.24841 55.36571 25 ft 5 kts 300°
2026-05-06 01:08 25.24869 55.36519 26 ft 10 kts 301°
2026-05-06 01:09 25.24914 55.36438 25 ft 15 kts 301°
2026-05-06 01:09 25.24941 55.36340 30 ft 7 kts 242°
2026-05-06 01:09 25.24899 55.36307 28 ft 10 kts 211°
2026-05-06 01:09 25.24881 55.36295 30 ft 0 kts 211°